Retour au catalogue

STARLINK-33638

ActifCommunicationsVLEO
NORAD 63436·PAYLOAD·🇺🇸 United States

Lancé Apr 4, 2025 depuis Vandenberg Space Force Base

Loading…

Prochains Passages (prochaines 24 heures)

TLE

FraisSource: CelesTrak SupGP

Époque: Sep 15, 2026, 03:46 UTC

1 63436C 25069D   26258.15743056  .00053948  00000+0  15937-2 0  2581
2 63436  53.1596 332.9153 0001230  92.5402  18.6631 15.34368676    12

Suivez STARLINK-33638 en temps réel avec AllMySat

Download on the App Store